Regional Weather Roundup
Issued by NWS

Home | Current Version | Previous Version | Text Only | Print | Product List | Glossary Off
Versions: 1 2 3 4 5 6 7 8 9 10 11 12 13 14 15 16 17 18 19 20 21 22 23 24 25 26 27 28 29 30 31 32 33 34 35 36 37 38 39 40 41 42 43 44 45 46 47 48 49 50

000
ASUS43 KIND 221600
RWRIN

WEATHER ROUNDUP FOR INDIANA
NATIONAL WEATHER SERVICE INDIANAPOLIS IN
1200 PM EDT SUN OCT 22 2017

NOTE: "FAIR" INDICATES FEW OR NO CLOUDS BELOW 12,000 FEET WITH NO
SIGNIFICANT WEATHER AND/OR OBSTRUCTIONS TO VISIBILITY.

* - STATION DOES NOT REPORT WEATHER SUCH AS PRECIPITATION OR FOG.

+ - STATION NOT QUALITY CONTROLLED BY THE NATIONAL WEATHER SERVICE.
    USE DATA WITH CAUTION...ESPECIALLY DEWPOINT AND RELATIVE
    HUMIDITY OBSERVATIONS.

INZ001>003-010>013-019-020-221700-
NORTHWEST INDIANA

CITY           SKY/WX    TMP DP  RH WIND       PRES   REMARKS
GARY /AIRPORT/ CLOUDY    70  57  64 S16G28    29.98S
MONTICELLO +   CLOUDY    68  56  64 S14G23    30.04S

$$

LMZ046-743>745-221700-
SOUTHERN LAKE MICHIGAN

STATION/POSITION TIME  TEMP    WIND        PRES    WAVE
                       AIR SEA DIR/SP/G            HT
                 (UTC) (F)     (DEG/KT/KT) (MB)    (FT)
BURNS HARBOR     1540   70     180/ 18/ 25 1015.9R
MICHIGAN CITY    1530   67     160/ 17/ 22   N/A
5NW MICH CITY    1550   66 58  180/ 17/ 23   N/A     3

$$

INZ004-005-014>016-021>024-221700-
NORTH CENTRAL INDIANA

CITY           SKY/WX    TMP DP  RH WIND       PRES   REMARKS
ELKHART        MOSUNNY   70  55  60 S12G18    30.05F
GOSHEN         PTSUNNY   70  55  59 S15       30.07R
PERU/GRISSOM   CLOUDY    72  56  57 S17G26    30.08S
SOUTH BEND     CLOUDY    68  58  70 S15G24    30.04S

$$

INZ006>009-017-018-025>027-221700-
NORTHEAST INDIANA

CITY           SKY/WX    TMP DP  RH WIND       PRES   REMARKS
FORT WAYNE     MOSUNNY   72  54  53 S24G31    30.11F
KENDALLVILLE + SUNNY     71  56  58 S13       30.10S

$$

INZ028-029-035-036-043>045-051>053-221700-
WEST CENTRAL INDIANA

CITY           SKY/WX    TMP DP  RH WIND       PRES   REMARKS
LAFAYETTE      CLOUDY    69  58  67 S10       30.04S
TERRE HAUTE    PTSUNNY   71  57  61 S18G30    30.06F

$$

INZ030>032-037>040-046>048-054>057-064-065-221700-
CENTRAL INDIANA

CITY           SKY/WX    TMP DP  RH WIND       PRES   REMARKS
COLUMBUS       MOSUNNY  N/A N/A N/A S21       30.14F
GREENWOOD *+   MOSUNNY   71  56  58 S9        30.14S
INDIANAPOLIS   CLOUDY    72  57  59 S17       30.10F
-EAGLE CREEK   CLOUDY    71  55  56 S8        30.10F
KOKOMO +       MOSUNNY   71  55  56 S17G25    30.10F
MT COMFORT *+  MOSUNNY   70  57  64 S15G24    30.13S
SHELBYVILLE    LGT RAIN  73  52  47 S17G26    30.13S

$$

INZ033-034-041-042-049-050-058-059-221700-
EAST CENTRAL INDIANA

CITY           SKY/WX    TMP DP  RH WIND       PRES   REMARKS
MUNCIE         MOSUNNY   74  52  46 S17       30.13F
RICHMOND +     SUNNY     70  52  52 S23       30.19F

$$

INZ060-061-067>069-081>083-085>088-221700-
SOUTHWEST INDIANA

CITY           SKY/WX    TMP DP  RH WIND       PRES   REMARKS
EVANSVILLE     CLOUDY    73  58  59 S16G24    30.07F
HUNTINGBURG +  SUNNY     73  58  59 S22G28    30.09F

$$

INZ062-063-066-070>080-084-089>092-221700-
SOUTH CENTRAL AND SOUTHEAST INDIANA

CITY           SKY/WX    TMP DP  RH WIND       PRES   REMARKS
BLOOMINGTON    LGT RAIN  72  56  57 S14G24    30.10F
MADISON *+     SUNNY     72  52  49 S8        30.19F
SEYMOUR +      SUNNY     73  52  46 S14       30.14F

$$




USA.gov is the U.S. government's official web portal to all federal, state and local government web resources and services.